TimeEDT,TemperatureF,Dew PointF,Humidity,Sea Level PressureIn,VisibilityMPH,Wind Direction,Wind SpeedMPH,Gust SpeedMPH,PrecipitationIn,Events,Conditions,WindDirDegrees,DateUTC
12:14 AM,41.0,26.6,57,29.83,10.0,WSW,8.1,-,N/A,,Overcast,250,2012-10-06 04:14:00
12:35 AM,39.2,26.6,61,29.83,10.0,West,8.1,-,N/A,,Overcast,260,2012-10-06 04:35:00
12:55 AM,41.0,26.6,57,29.83,10.0,West,11.5,18.4,N/A,,Overcast,260,2012-10-06 04:55:00
1:14 AM,41.0,26.6,57,29.83,10.0,West,8.1,-,N/A,,Overcast,260,2012-10-06 05:14:00
1:35 AM,39.2,28.4,65,29.82,10.0,West,5.8,-,N/A,,Overcast,260,2012-10-06 05:35:00
1:55 AM,39.2,28.4,65,29.82,10.0,West,10.4,17.3,N/A,,Overcast,260,2012-10-06 05:55:00
2:14 AM,39.2,28.4,65,29.82,10.0,West,6.9,-,N/A,,Mostly Cloudy,260,2012-10-06 06:14:00
2:54 AM,39.2,28.4,65,29.83,10.0,West,11.5,17.3,N/A,,Overcast,270,2012-10-06 06:54:00
3:15 AM,39.2,30.2,70,29.83,10.0,West,9.2,17.3,N/A,,Overcast,270,2012-10-06 07:15:00
3:34 AM,39.2,30.2,70,29.83,10.0,WNW,10.4,-,N/A,,Overcast,290,2012-10-06 07:34:00
3:55 AM,39.2,30.2,70,29.82,10.0,West,12.7,18.4,N/A,,Mostly Cloudy,280,2012-10-06 07:55:00
4:15 AM,37.4,32.0,81,29.83,10.0,West,12.7,17.3,N/A,,Mostly Cloudy,280,2012-10-06 08:15:00
4:34 AM,37.4,32.0,81,29.83,10.0,WNW,11.5,17.3,N/A,,Mostly Cloudy,290,2012-10-06 08:34:00
4:55 AM,37.4,32.0,81,29.83,10.0,WNW,11.5,17.3,N/A,,Overcast,290,2012-10-06 08:55:00
5:35 AM,37.4,33.8,87,29.84,7.0,WNW,11.5,17.3,N/A,Rain,Rain,290,2012-10-06 09:35:00
5:55 AM,37.4,33.8,87,29.84,10.0,WNW,18.4,-,N/A,Rain,Light Rain,290,2012-10-06 09:55:00
6:14 AM,37.4,33.8,87,29.85,10.0,WNW,11.5,17.3,N/A,,Overcast,290,2012-10-06 10:14:00
6:35 AM,35.6,33.8,93,29.85,10.0,West,10.4,-,N/A,Rain,Light Rain,280,2012-10-06 10:35:00
6:54 AM,35.6,32.0,87,29.86,10.0,West,12.7,18.4,N/A,,Scattered Clouds,280,2012-10-06 10:54:00
7:15 AM,35.6,33.8,93,29.87,10.0,West,11.5,-,N/A,Rain,Rain,270,2012-10-06 11:15:00
7:35 AM,35.6,33.8,93,29.87,10.0,West,10.4,-,N/A,Rain,Light Rain,280,2012-10-06 11:35:00
7:55 AM,35.6,33.8,93,29.88,7.0,West,11.5,17.3,N/A,Rain,Light Rain,280,2012-10-06 11:55:00
8:15 AM,35.6,33.8,93,29.89,10.0,West,9.2,19.6,N/A,Rain,Light Rain,270,2012-10-06 12:15:00
8:34 AM,35.6,33.8,93,29.89,10.0,West,6.9,-,N/A,Rain,Light Rain,270,2012-10-06 12:34:00
8:55 AM,35.6,33.8,93,29.90,7.0,West,12.7,18.4,N/A,Rain,Rain,270,2012-10-06 12:55:00
8:56 AM,68.0,64.4,88,30.00,7.0,West,6.9,-,N/A,,Clear,270,2012-10-06 12:56:00
9:15 AM,37.4,33.8,87,29.91,10.0,West,13.8,-,N/A,,Drizzle,280,2012-10-06 13:15:00
9:34 AM,37.4,33.8,87,29.92,10.0,WNW,10.4,-,N/A,Rain,Light Rain,290,2012-10-06 13:34:00
9:55 AM,39.2,35.6,87,29.93,10.0,West,11.5,-,N/A,,Overcast,280,2012-10-06 13:55:00
10:15 AM,37.4,35.6,93,29.94,5.0,WNW,9.2,18.4,N/A,Rain,Light Rain,290,2012-10-06 14:15:00
10:35 AM,37.4,33.8,87,29.95,4.0,West,12.7,16.1,N/A,Rain,Light Rain,280,2012-10-06 14:35:00
10:55 AM,39.2,35.6,87,29.95,10.0,WNW,10.4,18.4,N/A,Rain,Light Rain,300,2012-10-06 14:55:00
11:14 AM,37.4,35.6,93,29.96,7.0,NNW,13.8,19.6,N/A,Rain,Light Rain,330,2012-10-06 15:14:00
11:35 AM,39.2,35.6,87,29.97,10.0,NW,10.4,-,N/A,Rain,Light Rain,320,2012-10-06 15:35:00
11:55 AM,41.0,37.4,87,29.97,10.0,NNW,11.5,16.1,N/A,,Overcast,340,2012-10-06 15:55:00
12:14 PM,39.2,35.6,87,29.98,7.0,NNW,8.1,18.4,N/A,Rain,Rain,340,2012-10-06 16:14:00
12:35 PM,37.4,35.6,93,29.99,7.0,NW,8.1,-,N/A,Rain,Light Rain,320,2012-10-06 16:35:00
12:55 PM,41.0,37.4,87,30.00,7.0,NNW,12.7,26.5,N/A,Rain,Light Rain,340,2012-10-06 16:55:00
1:15 PM,41.0,37.4,87,30.00,10.0,NNW,12.7,19.6,N/A,,Overcast,330,2012-10-06 17:15:00
1:35 PM,41.0,37.4,87,30.01,10.0,NNW,15.0,21.9,N/A,Rain,Light Rain,340,2012-10-06 17:35:00
1:54 PM,42.8,37.4,81,30.01,10.0,North,12.7,18.4,N/A,,Mostly Cloudy,350,2012-10-06 17:54:00
2:15 PM,39.2,35.6,87,30.01,7.0,North,10.4,24.2,N/A,Rain,Light Rain,350,2012-10-06 18:15:00
2:35 PM,41.0,35.6,81,30.02,7.0,WNW,17.3,21.9,N/A,Rain,Rain,300,2012-10-06 18:35:00
2:54 PM,41.0,37.4,87,30.02,7.0,North,10.4,-,N/A,Rain,Light Rain,350,2012-10-06 18:54:00
3:15 PM,44.6,37.4,76,30.02,10.0,North,11.5,17.3,N/A,,Scattered Clouds,360,2012-10-06 19:15:00
3:35 PM,39.2,35.6,87,30.03,10.0,North,11.5,20.7,N/A,,Mostly Cloudy,350,2012-10-06 19:35:00
3:54 PM,42.8,37.4,81,30.04,10.0,North,10.4,-,N/A,,Overcast,10,2012-10-06 19:54:00
4:15 PM,41.0,35.6,81,30.04,10.0,North,10.4,-,N/A,,Mostly Cloudy,10,2012-10-06 20:15:00
4:34 PM,44.6,35.6,71,30.04,10.0,North,11.5,-,N/A,,Mostly Cloudy,350,2012-10-06 20:34:00
4:55 PM,44.6,35.6,71,30.04,10.0,NNW,9.2,-,N/A,,Mostly Cloudy,340,2012-10-06 20:55:00
5:15 PM,44.6,33.8,66,30.04,10.0,North,13.8,18.4,N/A,,Overcast,10,2012-10-06 21:15:00
5:34 PM,44.6,32.0,61,30.04,10.0,North,10.4,17.3,N/A,,Mostly Cloudy,360,2012-10-06 21:34:00
5:55 PM,42.8,30.2,61,30.05,10.0,North,12.7,17.3,N/A,,Mostly Cloudy,350,2012-10-06 21:55:00
6:15 PM,39.2,33.8,81,30.06,10.0,NW,10.4,16.1,N/A,,Overcast,320,2012-10-06 22:15:00
6:34 PM,41.0,32.0,70,30.07,10.0,NNW,9.2,-,N/A,,Overcast,330,2012-10-06 22:34:00
6:55 PM,39.2,33.8,81,30.08,10.0,West,5.8,-,N/A,,Mostly Cloudy,280,2012-10-06 22:55:00
7:14 PM,37.4,33.8,87,30.09,10.0,West,6.9,-,N/A,,Mostly Cloudy,280,2012-10-06 23:14:00
7:35 PM,37.4,32.0,81,30.09,10.0,WNW,6.9,-,N/A,,Overcast,290,2012-10-06 23:35:00
7:54 PM,37.4,32.0,81,30.10,10.0,NW,8.1,-,N/A,,Overcast,310,2012-10-06 23:54:00
8:15 PM,37.4,32.0,81,30.10,10.0,WNW,5.8,-,N/A,,Mostly Cloudy,300,2012-10-07 00:15:00
8:35 PM,37.4,32.0,81,30.10,10.0,West,5.8,-,N/A,,Overcast,270,2012-10-07 00:35:00
8:54 PM,33.8,30.2,87,30.10,10.0,West,4.6,-,N/A,,Scattered Clouds,280,2012-10-07 00:54:00
9:15 PM,33.8,30.2,87,30.11,10.0,WNW,5.8,-,N/A,,Clear,290,2012-10-07 01:15:00
9:34 PM,35.6,32.0,87,30.11,7.0,NW,11.5,16.1,N/A,,Drizzle,310,2012-10-07 01:34:00
9:55 PM,35.6,32.0,87,30.11,10.0,WNW,6.9,-,N/A,,Overcast,290,2012-10-07 01:55:00
10:14 PM,35.6,32.0,87,30.11,10.0,WNW,9.2,-,N/A,,Overcast,290,2012-10-07 02:14:00
10:35 PM,35.6,32.0,87,30.11,10.0,WNW,6.9,-,N/A,,Overcast,300,2012-10-07 02:35:00
10:54 PM,35.6,32.0,87,30.12,10.0,NW,6.9,-,N/A,,Overcast,310,2012-10-07 02:54:00
11:14 PM,35.6,32.0,87,30.12,5.0,NW,8.1,16.1,N/A,Rain,Light Rain,310,2012-10-07 03:14:00
11:35 PM,35.6,32.0,87,30.11,10.0,WNW,6.9,-,N/A,Rain,Light Rain,290,2012-10-07 03:35:00
11:54 PM,35.6,32.0,87,30.11,10.0,West,5.8,-,N/A,,Overcast,280,2012-10-07 03:54:00